Location: Navalespino
(40.5894°N, 4.2660°W)
Time: 06:42:05
(UTC+00:00)

COSMOS 2455 - Pass Details

Date: 18 April 2024
Orbit: 898 x 911 km, 67.1° (Epoch: 22 May)

Event Time Altitude Azimuth Distance (km) Brightness Sun altitude
Rises 22:03:01 0° 328° (NNW) 3,547 7.1 -29.7°
Reaches altitude 10° 22:05:32 10° 325° (NW) 2,603 6.2 -30.0°
Enters shadow 22:11:10 63° 265° (W) 1,008 3.1 -30.6°
